Sisters Island FAA Web Cam AK US FAA-ALASKA current weather conditions

sailwx.info

Wind from 045 at 9 knots

Air temperature 14.0° C
Dewpoint 12.0° C

Last reported at 2020-Aug-04 01:00 UTC.
Time now 2020-Aug-04 02:07 UTC

Location: N 58°11' W 135°15'.
View on Google Maps.

See reports from other nearby stations

  
Tides and Currents Weather Stations Pressure Air Temp Water Temp Dewpoint Dewpoint Depression Visibility Wind Speed Wind Dir Waves Ship Positions
date/time (UTC)wind fromknots sea level pressurealtimeterstation pressurevisibilityair tempwater tempwave heightnotes
2020-Aug-04 01:00 045 9 14.0
2020-Aug-04 00:50 042 10 13.9
2020-Aug-04 00:40 035 10 13.8
2020-Aug-04 00:30 037 8 13.7
2020-Aug-04 00:20 045 7 14.0
2020-Aug-04 00:10 112 4 14.2
2020-Aug-04 00:00 107 2 14.1
2020-Aug-03 23:50 038 1 13.9
2020-Aug-03 23:40 045 4 13.8
2020-Aug-03 23:30 062 9 13.7
2020-Aug-03 23:20 062 11 13.9
2020-Aug-03 23:10 062 9 14.0
2020-Aug-03 23:00 084 9 14.0
2020-Aug-03 22:50 062 8 14.3
2020-Aug-03 22:40 063 8 14.2
2020-Aug-03 22:30 026 6 14.2
2020-Aug-03 22:20 026 6 14.0
2020-Aug-03 22:10 046 7 14.1
2020-Aug-03 22:00 060 7 14.0
2020-Aug-03 21:50 059 6 14.0
2020-Aug-03 21:40 051 8 13.9
2020-Aug-03 21:30 055 10 13.9
2020-Aug-03 21:20 059 8 14.0
2020-Aug-03 21:10 049 8 14.1
2020-Aug-03 21:00 050 5 14.1
2020-Aug-03 20:50 071 4 14.0
2020-Aug-03 20:40 066 4 13.8
2020-Aug-03 20:30 094 4 13.9
2020-Aug-03 20:20 099 4 13.8
2020-Aug-03 20:10 065 4 13.8
2020-Aug-03 20:00 067 5 13.8
2020-Aug-03 19:50 061 6 14.0
2020-Aug-03 19:40 060 5 14.1
2020-Aug-03 19:30 075 4 14.1
2020-Aug-03 19:20 063 4 14.1
2020-Aug-03 19:10 063 4 14.1
2020-Aug-03 19:00 069 3 14.2
2020-Aug-03 18:50 069 2 14.2
2020-Aug-03 18:40 052 2 14.3
2020-Aug-03 18:30 078 2 14.3
2020-Aug-03 18:20 096 1 14.5
2020-Aug-03 18:10 092 3 15.0
2020-Aug-03 18:00 040 0 15.5
2020-Aug-03 17:50 325 0 14.7
2020-Aug-03 17:40 306 2 14.3
2020-Aug-03 17:30 312 2 14.2
2020-Aug-03 17:20 314 2 14.0
2020-Aug-03 17:10 307 3 14.0
2020-Aug-03 17:00 312 3 13.7
2020-Aug-03 16:50 311 3 13.6
2020-Aug-03 16:40 292 4 13.6
2020-Aug-03 16:30 320 4 13.6
2020-Aug-03 16:20 291 6 13.5
2020-Aug-03 16:10 308 6 13.5
2020-Aug-03 16:00 314 5 13.4
2020-Aug-03 15:50 295 3 13.4
2020-Aug-03 15:40 292 3 13.3
2020-Aug-03 15:30 300 4 13.3
2020-Aug-03 15:20 286 4 13.3
2020-Aug-03 15:10 293 3 13.3
2020-Aug-03 15:00 294 5 13.4
2020-Aug-03 14:50 285 4 13.3
2020-Aug-03 14:40 294 4 13.4
2020-Aug-03 14:30 303 3 13.3
2020-Aug-03 14:20 308 2 13.4
2020-Aug-03 14:10 298 2 13.4
2020-Aug-03 14:00 306 2 13.3
2020-Aug-03 13:50 305 3 13.3
2020-Aug-03 13:40 300 5 13.2
2020-Aug-03 13:30 305 6 13.2
2020-Aug-03 13:20 299 6 13.2
2020-Aug-03 13:10 303 6 13.2
2020-Aug-03 13:00 315 6 13.1
2020-Aug-03 12:50 314 4 13.1
2020-Aug-03 12:40 310 6 13.1
2020-Aug-03 12:30 301 6 13.2
2020-Aug-03 12:20 295 6 13.2
2020-Aug-03 12:10 285 7 13.3
2020-Aug-03 12:00 302 6 13.3
2020-Aug-03 11:50 288 9 13.3
2020-Aug-03 11:40 288 9 13.3
2020-Aug-03 11:30 286 8 13.3
2020-Aug-03 11:20 289 7 13.3
2020-Aug-03 11:10 294 7 13.3
2020-Aug-03 11:00 288 8 13.3
2020-Aug-03 10:50 283 9 13.2
2020-Aug-03 10:40 279 9 13.5
2020-Aug-03 10:30 275 5 13.7
2020-Aug-03 10:20 290 9 13.6
2020-Aug-03 10:10 296 12 13.6
2020-Aug-03 10:00 290 11 13.5
2020-Aug-03 09:50 300 9 13.6
2020-Aug-03 09:40 304 10 13.6
2020-Aug-03 09:30 298 12 13.6
2020-Aug-03 09:20 292 10 13.6
2020-Aug-03 09:10 299 10 13.7
2020-Aug-03 09:00 297 12 13.8
2020-Aug-03 08:50 289 12 13.8
2020-Aug-03 08:40 291 10 13.8
2020-Aug-03 08:30 296 9 13.7
2020-Aug-03 08:20 283 9 13.7
2020-Aug-03 08:10 293 9 13.8
2020-Aug-03 08:00 303 11 13.7
2020-Aug-03 07:50 301 13 13.8
2020-Aug-03 07:40 308 13 13.8
2020-Aug-03 07:30 304 11 13.8
2020-Aug-03 07:20 300 12 13.9
2020-Aug-03 07:10 289 13 13.8
2020-Aug-03 07:00 286 13 13.9
2020-Aug-03 06:50 296 13 13.9
2020-Aug-03 06:40 300 14 13.9
2020-Aug-03 06:30 293 13 13.9
2020-Aug-03 06:20 295 13 13.9
2020-Aug-03 06:10 300 10 13.9
2020-Aug-03 06:00 300 13 14.0
2020-Aug-03 05:50 285 13 13.9
2020-Aug-03 05:40 294 10 13.9
2020-Aug-03 05:30 286 10 14.0
2020-Aug-03 05:20 280 10 13.9
2020-Aug-03 05:10 280 11 13.9
2020-Aug-03 05:00 278 10 14.0
2020-Aug-03 04:50 277 8 14.2
2020-Aug-03 04:40 290 10 14.1
2020-Aug-03 04:30 294 8 14.0
2020-Aug-03 04:20 296 7 14.0
2020-Aug-03 04:10 292 6 13.8
2020-Aug-03 04:00 288 7 13.8
2020-Aug-03 03:50 276 7 13.8
2020-Aug-03 03:40 279 9 13.7
2020-Aug-03 03:30 284 8 13.5
2020-Aug-03 03:20 298 8 14.0
2020-Aug-03 03:10 293 6 14.1
2020-Aug-03 03:00 301 6 14.1
2020-Aug-03 02:50 310 3 14.2
2020-Aug-03 02:40 331 2 14.3
2020-Aug-03 02:30 322 3 14.1
2020-Aug-03 02:20 017 2 14.2
2020-Aug-03 02:10 025 3 14.1
2020-Aug-03 02:00 083 2 14.1
2020-Aug-03 01:50 111 0 14.2
2020-Aug-03 01:40 118 0 14.1
2020-Aug-03 01:30 066 2 14.1
2020-Aug-03 01:20 067 3 14.1
2020-Aug-03 01:10 109 2 14.1
2020-Aug-03 01:00 117 4 14.1
2020-Aug-03 00:50 154 2 14.2
2020-Aug-03 00:40 118 4 14.3
2020-Aug-03 00:30 126 4 14.3
2020-Aug-03 00:20 118 3 14.3
2020-Aug-03 00:10 123 4 14.4
2020-Aug-03 00:00 113 5 14.3
2020-Aug-02 23:50 110 6 14.4
2020-Aug-02 23:40 100 6 14.4
2020-Aug-02 23:30 100 8 14.3
2020-Aug-02 23:20 111 8 14.4
2020-Aug-02 23:10 102 7 14.4
2020-Aug-02 23:00 088 5 14.3
2020-Aug-02 22:50 081 7 14.4
2020-Aug-02 22:40 094 6 14.3
2020-Aug-02 22:30 083 7 14.2
2020-Aug-02 22:20 077 6 14.2
2020-Aug-02 22:10 068 6 14.1
2020-Aug-02 22:00 066 7 14.0
2020-Aug-02 21:50 067 7 13.9
2020-Aug-02 21:40 071 8 13.9
2020-Aug-02 21:30 069 7 13.8
2020-Aug-02 21:20 092 7 13.8
2020-Aug-02 21:10 094 6 13.8
2020-Aug-02 21:00 106 8 13.8
2020-Aug-02 20:50 100 8 14.0
2020-Aug-02 20:40 099 11 14.1
2020-Aug-02 20:30 077 9 14.1
2020-Aug-02 20:20 066 6 14.1
2020-Aug-02 20:10 054 6 14.1
2020-Aug-02 20:00 058 7 14.2
2020-Aug-02 19:50 064 5 14.2
2020-Aug-02 19:40 077 6 14.2
2020-Aug-02 19:30 070 4 14.2
2020-Aug-02 19:20 082 2 14.2
2020-Aug-02 19:10 090 2 14.1
2020-Aug-02 19:00 068 7 14.1
2020-Aug-02 18:50 070 9 14.1
2020-Aug-02 18:40 072 9 14.1
2020-Aug-02 18:30 079 10 14.1
2020-Aug-02 18:20 072 9 14.1
2020-Aug-02 18:10 071 8 14.1
2020-Aug-02 18:00 075 9 14.0
2020-Aug-02 17:50 074 8 14.0
2020-Aug-02 17:40 087 8 14.0
2020-Aug-02 17:30 076 7 13.9
2020-Aug-02 17:20 079 9 13.9
2020-Aug-02 17:10 091 10 13.8
2020-Aug-02 17:00 087 10 13.8
2020-Aug-02 16:50 081 9 13.8
2020-Aug-02 16:40 088 9 13.8
2020-Aug-02 16:30 091 8 13.8
2020-Aug-02 16:20 094 9 13.8
2020-Aug-02 16:10 096 9 13.8
2020-Aug-02 16:00 099 11 13.8
2020-Aug-02 15:50 091 10 13.8
2020-Aug-02 15:40 095 10 13.7
2020-Aug-02 15:30 094 11 13.7
2020-Aug-02 15:20 099 11 13.8
2020-Aug-02 15:10 106 10 13.9
2020-Aug-02 15:00 100 11 14.0
2020-Aug-02 14:50 094 11 14.1
2020-Aug-02 14:40 095 13 14.3
2020-Aug-02 14:30 092 10 14.3
2020-Aug-02 14:20 095 11 14.3
2020-Aug-02 14:10 093 11 14.2
2020-Aug-02 14:00 094 11 14.2
2020-Aug-02 13:50 086 11 14.3
2020-Aug-02 13:40 093 11 14.3
2020-Aug-02 13:30 077 11 14.2
2020-Aug-02 13:20 067 11 14.3
2020-Aug-02 13:10 083 10 14.2
2020-Aug-02 13:00 073 11 14.4
2020-Aug-02 12:50 069 13 14.1
2020-Aug-02 12:40 086 11 14.1
2020-Aug-02 12:30 097 13 14.2
2020-Aug-02 12:20 095 13 14.4
2020-Aug-02 12:10 099 14 14.3
2020-Aug-02 12:00 096 14 14.1
2020-Aug-02 11:50 096 13 14.1
2020-Aug-02 11:40 097 13 14.1
2020-Aug-02 11:30 086 15 14.1
2020-Aug-02 11:20 083 13 14.1
2020-Aug-02 11:10 091 13 14.1
2020-Aug-02 11:00 069 14 14.1
2020-Aug-02 10:50 080 14 14.0
2020-Aug-02 10:40 085 14 14.0
2020-Aug-02 10:30 067 14 14.0
2020-Aug-02 10:20 075 12 14.0
2020-Aug-02 10:10 092 13 13.9
2020-Aug-02 10:00 069 13 13.9
2020-Aug-02 09:50 070 11 13.9
2020-Aug-02 09:40 082 12 13.9
2020-Aug-02 09:30 070 9 13.8
2020-Aug-02 09:20 085 10 13.8
2020-Aug-02 09:10 090 11 13.8
2020-Aug-02 09:00 084 12 13.8